Location: Karcze
(52.0945°N, 22.4786°E)
Time: 12:50:38
(UTC+00:00)

NOSS 7 (D) - Pass Details

Date: 14 July 2020
Orbit: 308 x 625 km, 63.3° (Epoch: 07 August)

Event Time Altitude Azimuth Distance (km) Brightness Sun altitude
Rises 00:26:42 0° 311° (NW) 2,078 8.0 -12.4°
Reaches altitude 10° 00:28:37 10° 305° (NW) 1,268 6.8 -12.3°
Maximum altitude 00:31:18 50° 229° (SW) 458 4.0 -12.1°
Drops below altitude 10° 00:34:14 10° 152° (SSE) 1,377 6.5 -11.9°
Enters shadow 00:34:56 - 150° (SSE) 1,671 7.0 -11.8°
